HULIANWAN GAOGUI-03 (H*)

Last updated on Tue Sep 22 2026 00:03:16 GMT+0000 (Coordinated Universal Time)

1 61503U 24181A 26264.54514427 -.00000245 00000+0 00000+0 0 9993 2 61503 0.0723 350.4321 0001081 106.9956 22.1513 1.00270715 7793
UTC large
Height (km)
Speed (km/s)
/
Latitude / Longitude
Inclination (degrees)
Orbital Period (minutes)
Azimuth
Elevation
Range (km)
Doppler Factor

Next 0 passes for location: London (51.5072 / 0.1276)

No passes found over London.
HULIANWAN GAOGUI-03 (H*)